Temperature
19 20 21 21 21 19 18 18 18 19 18 19 18 18 19 20 21 21 22 22 22 22 22 22 21 21 20 20 19 19 18 18 17 17 16 16 16 15 15 15 14 14 14 14
20 21 21 21 21 20 20 19 18 19 19 18 18 19 19 19 20 20 22 22 22 22 22 22 21 21 21 20 19 19 18 18 17 17 17 16 16 16 15 15 15 14 14 14
19 20 21 20 20 20 20 19 19 19 19 18 17 17 18 19 20 21 22 23 23 22 22 22 21 21 21 20 20 19 18 18 17 17 17 16 16 16 15 15 15 14 14 14
17 20 20 20 20 20 19 19 18 17 17 17 17 18 19 20 21 21 22 22 22 22 22 22 21 21 20 20 19 19 19 18 18 17 17 17 16 16 16 15 15 15 14 14
16 18 19 19 19 19 19 19 17 17 17 17 18 18 18 19 20 21 22 22 22 22 22 22 22 21 20 20 19 19 19 18 18 18 17 17 16 16 16 15 15 15 14 14
16 18 19 19 19 19 19 19 18 16 16 16 17 17 17 19 20 21 21 21 21 21 21 21 21 20 20 20 19 19 19 18 18 18 17 17 16 16 16 15 15 14 14 14
16 17 17 18 18 18 19 18 17 17 16 16 16 17 18 19 20 20 21 20 20 20 21 21 20 20 19 19 19 19 18 18 18 17 17 16 16 16 15 15 15 14 14 14
15 17 17 17 17 17 17 17 17 17 17 17 17 17 18 19 20 20 20 20 20 20 20 20 19 19 19 19 18 18 18 17 17 17 16 16 16 15 15 15 14 14 14 14
15 16 16 16 17 17 17 17 17 17 17 17 17 17 18 18 19 19 19 19 19 19 19 18 18 18 18 18 17 17 17 16 16 16 16 15 15 15 14 14 14 14 13 13
14 15 15 16 16 17 17 17 17 17 17 17 17 17 18 18 18 18 18 18 18 18 18 17 17 17 17 16 16 16 16 16 15 15 15 15 14 14 14 13 13 13 13 13
14 14 15 16 16 17 17 17 17 17 17 17 17 17 17 17 17 17 17 17 17 17 16 16 16 16 15 15 15 15 15 15 14 14 14 13 13 13 13 12 12 12 12 12
15 15 14 15 16 17 17 16 16 17 16 17 17 16 16 16 16 16 16 16 16 15 15 15 15 14 14 14 14 14 14 13 13 13 12 12 12 12 12 12 12 11 11 11
16 16 16 15 16 16 16 16 16 16 16 16 16 16 16 15 15 15 15 15 14 14 14 14 13 13 13 13 13 13 13 12 12 12 12 11 11 11 11 11 11 11 11 11
15 15 15 15 15 16 16 15 16 15 15 15 15 15 15 15 14 14 14 14 14 13 13 13 13 13 12 12 12 12 12 11 11 11 11 11 10 10 10 10 10 11 11 11
15 15 15 14 14 15 15 15 15 15 15 15 15 15 15 14 14 14 13 13 13 13 13 12 12 12 12 12 11 11 11 11 11 10 10 10 10 10 10 10 10 10 10 10
14 14 14 14 14 14 14 14 14 14 14 14 14 14 14 14 13 13 13 13 13 12 12 12 12 11 11 11 11 11 10 10 10 10 10 10 9 9 9 9 9 9 9 9
14 13 13 13 13 13 13 13 13 13 13 13 13 13 13 13 13 13 12 12 12 12 12 11 11 11 11 11 11 10 10 10 10 10 9 9 9 9 9 8 8 8 8 9
14 13 13 13 13 13 13 13 13 13 13 13 13 13 12 12 12 12 12 12 12 11 11 11 11 11 11 10 10 10 10 10 9 9 9 9 9 8 8 8 8 8 8 8
13 13 13 13 13 13 13 13 13 12 12 12 12 12 12 12 12 12 11 11 11 11 11 11 11 11 10 10 10 10 9 9 9 9 9 8 8 8 8 8 7 7 7 7
13 13 12 12 12 12 12 12 12 12 12 12 12 12 12 12 11 11 11 11 11 11 11 11 10 10 10 10 10 9 9 9 8 8 8 8 8 7 7 7 7 7 7 7
12 12 12 12 12 12 12 12 12 12 12 12 11 11 11 11 11 11 11 11 11 11 11 10 10 10 10 10 9 9 9 8 8 8 8 7 7 6 6 6 6 6 6 6
11 11 11 11 11 11 11 11 11 11 11 11 11 11 11 11 11 11 11 11 10 10 10 10 10 10 9 9 9 8 8 8 8 7 7 6 6 6 6 6 6 6 6 6
11 11 11 11 11 11 11 11 11 11 11 11 11 11 11 11 10 10 10 10 10 10 10 10 10 9 9 9 8 8 8 7 7 6 6 6 5 5 5 5 5 5 5 5
10 11 11 11 11 11 11 11 10 10 10 10 10 10 10 10 10 10 10 10 9 9 9 9 9 9 8 8 8 7 7 7 6 6 5 5 5 5 5 5 5 5 5 5
10 10 10 10 10 10 10 10 10 10 10 10 10 9 9 9 9 9 9 9 9 9 9 9 8 8 8 7 7 7 6 6 6 5 5 5 4 4 4 4 4 4 4 4
9 9 9 9 9 9 9 9 9 9 9 9 9 9 8 8 8 8 8 8 8 8 8 8 7 7 7 6 6 6 5 5 5 5 4 4 4 4 4 4 4 4 4 4
8 8 8 8 8 8 8 8 8 8 7 7 7 7 7 7 7 7 7 7 7 7 7 6 6 6 6 6 5 5 5 4 4 4 4 4 3 3 3 3 3 3 4 4
Wind_Speed
6 5 4 5 5 8 8 8 9 8 8 10 8 9 9 8 8 8 8 10 12 13 12 11 10 10 11 11 10 10 10 10 10 9 7 7 7 7 6 6 7 6 6 6
3 3 4 3 5 6 7 6 7 6 9 8 5 3 4 6 8 10 11 11 12 11 11 12 13 12 11 11 10 10 11 11 9 8 7 8 8 7 7 7 6 6 7 7
3 2 1 5 7 6 5 5 7 8 8 3 2 3 5 6 8 11 11 11 11 11 12 13 13 12 12 12 10 10 11 10 9 9 9 9 8 7 8 8 7 7 8 8
2 2 6 8 2 4 5 5 5 6 6 4 5 5 3 2 6 7 7 8 9 10 10 10 9 9 9 8 9 10 10 9 9 9 10 8 7 8 9 6 7 7 8 9
3 3 6 6 3 3 3 4 3 4 5 3 2 2 3 2 2 4 5 6 7 8 7 7 8 8 8 8 8 9 9 10 9 9 9 8 9 10 8 6 8 8 7 9
4 4 6 6 1 2 3 4 2 2 2 1 3 2 3 5 2 2 2 1 1 4 4 5 5 7 8 8 8 10 10 9 8 8 9 9 10 8 6 6 8 8 9 9
4 4 7 4 1 4 4 5 1 1 1 2 2 3 3 3 2 2 3 4 3 4 4 4 5 7 6 6 9 9 7 6 5 6 7 7 6 5 6 6 7 7 9 9
4 3 7 1 2 5 6 1 1 1 1 2 1 1 2 3 3 5 6 6 5 4 3 4 6 7 6 6 5 3 3 4 4 4 4 4 4 5 5 6 6 7 8 9
7 7 4 2 3 2 2 2 1 1 1 2 2 3 3 4 6 6 6 5 4 5 5 5 4 5 5 2 2 4 3 2 2 2 2 2 3 5 4 4 5 6 7 8
3 5 4 3 2 1 2 2 1 2 3 4 5 5 6 6 7 7 7 6 5 7 7 5 4 4 3 3 4 5 4 2 1 0 1 1 2 3 4 5 6 7 7 8
4 5 3 2 0 2 3 3 4 5 6 6 8 7 7 7 7 7 7 6 6 6 6 5 5 5 3 3 5 5 4 2 2 1 1 2 3 3 5 6 7 8 8 8
6 5 4 1 1 4 6 5 6 7 8 7 8 8 8 7 6 6 6 6 6 7 6 5 4 4 3 4 5 5 4 2 1 1 2 2 4 5 7 9 12 13 14 13
3 1 4 3 5 6 7 7 7 8 8 8 7 7 8 6 5 6 6 6 6 5 5 4 4 3 3 3 4 4 3 1 1 1 2 3 3 5 7 8 10 12 14 14
1 4 5 4 5 7 10 10 10 10 8 7 6 6 7 7 6 6 5 4 4 5 4 4 4 3 2 2 3 3 1 1 1 1 2 3 4 5 5 7 9 9 10 13
7 6 7 8 9 9 9 10 11 9 7 7 6 6 6 6 5 3 2 3 4 4 3 3 3 2 2 1 2 1 1 1 2 2 3 4 4 5 6 7 8 9 9 10
9 12 12 13 12 10 10 9 9 6 5 5 5 4 3 4 3 2 2 2 3 1 0 0 1 2 2 0 0 1 2 4 4 3 4 4 5 6 6 7 8 8 9 10
10 9 9 10 9 9 8 7 6 4 4 3 2 2 2 3 3 2 1 1 0 1 2 2 3 3 2 1 1 2 3 4 5 4 4 5 5 6 7 7 8 9 10 11
9 8 8 8 7 7 6 5 4 3 2 1 1 2 1 1 1 2 2 2 2 3 4 4 4 3 3 3 2 2 3 3 4 5 5 6 6 7 7 8 9 11 10 11
10 9 8 7 6 5 3 2 1 1 1 1 1 1 2 3 3 3 2 2 3 4 6 5 5 4 4 5 3 2 3 4 5 5 6 7 8 7 8 9 10 10 11 11
9 8 7 6 4 3 2 1 1 2 2 1 0 1 2 4 4 3 3 4 5 6 6 6 4 4 5 5 4 3 4 5 6 6 6 7 8 8 9 9 10 11 11 10
6 5 4 3 2 2 2 2 2 3 3 2 2 3 4 5 4 3 3 5 7 6 6 7 5 5 4 4 4 3 4 5 6 6 7 7 8 9 9 9 10 10 11 10
4 3 2 2 2 3 4 4 3 3 4 3 3 3 4 5 5 4 5 6 7 7 5 4 5 6 6 5 3 4 5 6 6 6 6 7 8 9 9 10 10 11 10 10
2 3 3 3 3 4 4 4 4 3 4 4 4 5 5 5 4 4 6 5 5 7 5 5 6 7 7 3 3 4 5 6 6 6 7 7 8 8 9 11 10 10 10 10
3 3 3 3 3 3 4 5 5 4 4 4 4 4 4 4 4 4 6 8 8 7 4 5 6 6 5 3 3 4 5 6 7 7 7 7 7 8 9 9 10 9 9 11
2 3 3 4 3 3 4 5 5 5 5 5 5 5 3 3 4 5 5 5 6 6 4 5 5 5 4 3 4 5 5 6 6 6 6 7 7 8 8 9 9 10 10 10
3 3 3 2 2 3 3 3 3 4 4 5 5 5 5 4 4 4 4 4 5 5 4 4 3 4 3 4 4 5 5 6 6 6 7 7 8 8 8 9 11 10 10 9
4 3 3 3 4 3 3 3 3 4 4 5 6 6 6 6 5 5 4 4 4 4 4 4 3 4 4 4 4 4 4 4 5 6 6 7 7 8 8 10 9 9 9 9
Wind_Direction
230 227 194 212 207 180 189 192 194 228 229 251 243 231 228 220 205 190 194 197 200 202 199 193 189 191 193 194 189 183 183 192 205 207 207 209 213 217 218 221 228 231 236 244
265 239 199 230 240 203 207 204 217 244 258 250 253 231 229 218 201 200 203 203 202 199 193 193 195 195 193 195 189 179 188 200 204 199 201 211 218 217 220 228 232 230 236 243
246 300 89 254 233 207 206 206 193 220 244 272 258 239 233 223 209 211 211 206 198 194 193 195 196 191 193 195 181 182 194 201 200 199 205 214 217 215 223 229 228 233 239 240
178 116 226 247 243 192 203 231 220 243 266 253 238 246 248 221 199 208 208 204 205 200 195 191 185 185 184 172 177 189 198 203 202 201 211 212 210 220 226 223 225 234 240 240
142 194 267 284 232 169 185 263 221 233 273 273 275 56 6 334 242 213 217 214 205 196 193 183 176 174 162 170 177 188 203 210 208 203 207 209 215 223 223 220 229 232 238 239
143 175 235 251 175 138 123 288 252 194 270 312 87 87 293 319 324 7 27 45 151 141 134 155 168 151 159 176 183 202 208 209 204 198 203 212 220 225 221 222 235 238 244 244
169 211 257 259 172 114 164 248 288 153 157 101 113 192 267 323 21 66 65 60 83 110 131 149 139 142 163 178 203 212 199 190 190 197 207 218 224 226 228 231 240 246 253 258
152 196 256 277 136 177 213 211 131 116 125 127 138 1 3 19 38 63 68 63 78 99 103 100 125 145 166 200 216 174 162 177 197 206 215 222 224 237 236 234 243 254 261 270
187 214 249 258 227 241 164 171 193 142 147 128 95 60 43 42 42 51 58 64 79 100 92 78 104 135 158 196 130 130 139 174 213 214 214 223 230 246 249 243 249 261 263 269
235 263 266 264 240 219 154 164 145 129 115 102 92 72 60 57 54 58 60 66 75 88 87 75 77 98 121 117 120 117 119 121 107 88 306 259 239 241 249 256 261 265 266 269
248 268 305 333 317 105 96 103 96 87 89 97 97 84 76 68 61 65 66 66 77 88 91 86 81 79 77 90 105 103 99 86 68 36 327 306 292 268 263 258 252 256 266 266
226 228 186 227 41 95 95 89 93 93 76 72 92 99 92 80 70 74 74 73 79 84 87 82 82 73 60 72 92 96 83 63 44 6 326 311 306 303 276 267 276 267 257 257
242 130 122 108 80 85 92 88 86 90 93 88 79 90 92 85 75 77 76 76 82 86 86 84 81 67 50 70 86 89 84 54 8 351 332 320 313 308 310 309 299 290 280 273
124 103 89 77 87 92 96 93 86 78 74 81 84 87 91 88 81 78 78 80 89 87 77 72 69 44 14 84 101 99 91 21 341 311 307 303 303 301 299 301 308 308 300 291
40 76 102 92 80 75 79 87 85 75 66 59 65 81 93 97 95 88 79 86 85 78 67 65 60 0 345 76 102 90 359 305 296 293 294 297 300 299 297 297 297 298 302 305
75 76 82 82 79 76 72 73 75 67 62 61 61 62 77 101 103 89 65 83 95 89 305 334 287 286 306 24 99 308 290 294 302 295 299 303 300 297 298 299 299 300 301 301
86 80 81 82 78 77 74 74 74 65 59 63 65 67 76 80 71 46 353 339 163 261 267 255 259 278 291 256 246 267 283 296 306 304 293 292 294 294 295 296 297 297 296 295
89 97 99 98 94 85 73 69 69 65 50 25 50 69 85 126 197 256 282 313 327 313 287 261 260 272 271 253 243 256 273 285 291 293 294 294 294 293 294 294 295 296 299 300
83 85 83 82 84 91 90 81 69 40 3 14 51 266 258 252 248 260 281 297 286 282 281 274 273 266 265 262 257 256 274 286 292 294 295 296 298 298 297 297 296 297 298 300
71 71 74 72 68 73 67 16 2 356 334 324 295 300 296 282 276 277 280 271 256 249 264 276 273 263 263 270 273 268 279 287 292 296 299 301 302 302 302 301 301 302 301 300
67 63 64 62 39 8 342 330 326 317 318 320 282 272 279 285 282 270 266 279 278 268 268 270 265 261 263 269 277 273 279 284 288 291 295 299 302 303 304 304 305 305 303 302
42 25 360 342 333 325 323 325 319 311 316 317 303 287 287 291 293 283 257 249 270 288 286 273 269 269 275 278 275 278 282 285 288 291 293 296 300 302 303 305 304 304 304 304
345 328 322 320 314 307 321 332 332 319 308 305 298 291 281 276 271 268 286 283 283 288 283 272 276 282 289 285 275 277 281 285 286 287 289 293 296 298 300 301 301 302 303 305
326 325 326 326 337 346 337 328 330 324 313 305 297 291 284 290 292 265 260 288 300 297 288 284 289 293 297 282 278 281 285 286 286 288 290 293 296 299 301 303 303 304 303 305
331 337 349 356 356 332 313 321 332 334 333 325 319 316 303 262 265 291 301 304 309 310 304 302 301 301 300 289 286 289 292 292 293 294 294 296 298 301 303 305 306 305 305 307
355 347 337 325 306 302 310 320 320 316 320 321 319 319 320 315 301 303 312 319 320 316 310 311 316 313 307 301 300 300 300 302 303 300 299 300 303 305 305 307 309 310 309 311
0 354 346 342 336 326 319 312 306 307 308 306 305 311 316 319 321 324 324 323 323 322 319 317 317 315 312 311 312 315 318 320 319 316 314 312 311 310 309 310 311 310 312 315
Height
1478 1475 1476 1477 1478 1483 1489 1491 1497 1489 1486 1475 1470 1469 1468 1469 1472 1474 1477 1480 1484 1487 1491 1495 1499 1503 1506 1510 1513 1515 1518 1520 1522 1524 1525 1526 1527 1527 1528 1528 1528 1528 1527 1526
1477 1472 1473 1476 1474 1476 1479 1479 1482 1480 1478 1466 1465 1466 1466 1466 1468 1470 1472 1475 1478 1482 1486 1490 1494 1498 1501 1505 1508 1511 1514 1516 1518 1520 1521 1523 1524 1524 1525 1525 1525 1524 1524 1523
1485 1476 1475 1482 1472 1471 1472 1471 1473 1476 1470 1464 1464 1463 1463 1463 1464 1465 1467 1470 1473 1476 1480 1484 1489 1493 1497 1501 1504 1507 1510 1512 1515 1516 1517 1519 1520 1521 1521 1521 1521 1521 1520 1519
1487 1483 1491 1475 1463 1464 1467 1467 1467 1467 1464 1463 1462 1460 1461 1461 1461 1463 1465 1468 1471 1473 1477 1481 1485 1490 1494 1498 1501 1503 1505 1508 1510 1512 1513 1515 1516 1517 1517 1517 1517 1516 1516 1515
1491 1489 1483 1471 1463 1464 1467 1467 1463 1464 1462 1461 1459 1459 1461 1461 1461 1462 1464 1466 1468 1471 1475 1478 1482 1486 1490 1494 1496 1499 1501 1504 1506 1508 1509 1511 1511 1512 1513 1513 1512 1512 1511 1510
1488 1487 1489 1470 1461 1461 1465 1469 1461 1461 1461 1460 1459 1464 1464 1461 1460 1461 1463 1466 1467 1470 1473 1476 1480 1484 1487 1490 1493 1495 1497 1500 1502 1504 1505 1506 1507 1508 1508 1508 1507 1507 1505 1504
1485 1485 1477 1463 1460 1462 1474 1470 1461 1460 1460 1460 1461 1463 1463 1461 1460 1461 1462 1465 1467 1469 1471 1475 1478 1481 1484 1487 1489 1491 1494 1496 1498 1500 1501 1502 1503 1503 1503 1503 1502 1501 1499 1498
1485 1486 1479 1461 1460 1464 1464 1460 1460 1460 1460 1460 1461 1461 1461 1461 1460 1459 1461 1464 1466 1468 1471 1473 1476 1479 1481 1483 1486 1489 1491 1493 1494 1496 1497 1498 1498 1498 1498 1497 1495 1494 1493 1491
1473 1472 1462 1459 1459 1459 1459 1460 1460 1460 1461 1461 1461 1461 1461 1461 1461 1460 1462 1465 1467 1469 1471 1473 1475 1477 1479 1481 1484 1486 1487 1489 1490 1491 1492 1492 1492 1492 1492 1491 1489 1487 1486 1484
1466 1461 1458 1457 1457 1458 1458 1459 1460 1461 1461 1461 1461 1462 1462 1462 1463 1463 1465 1466 1468 1469 1470 1472 1474 1476 1478 1480 1481 1483 1484 1485 1486 1487 1487 1486 1486 1486 1485 1483 1482 1480 1478 1476
1463 1459 1457 1456 1456 1457 1459 1460 1461 1461 1462 1462 1463 1463 1464 1465 1465 1466 1467 1469 1470 1470 1471 1473 1474 1475 1477 1478 1479 1480 1481 1482 1482 1482 1482 1481 1480 1480 1478 1477 1476 1473 1471 1470
1460 1455 1456 1457 1457 1458 1459 1461 1461 1462 1463 1464 1465 1465 1466 1467 1468 1469 1470 1471 1471 1471 1472 1473 1475 1475 1476 1477 1477 1478 1478 1478 1478 1478 1477 1476 1475 1474 1473 1472 1470 1467 1465 1463
1454 1453 1455 1456 1458 1459 1461 1462 1463 1465 1465 1467 1468 1469 1469 1470 1471 1472 1472 1472 1473 1473 1473 1474 1475 1475 1476 1475 1476 1476 1476 1476 1475 1474 1473 1472 1470 1468 1466 1465 1463 1461 1459 1456
1454 1454 1456 1457 1459 1461 1463 1465 1467 1468 1469 1470 1471 1472 1472 1473 1474 1474 1474 1475 1475 1475 1475 1475 1475 1475 1475 1475 1475 1474 1474 1474 1473 1471 1470 1468 1466 1464 1461 1458 1455 1453 1452 1450
1456 1456 1457 1460 1463 1465 1466 1468 1469 1471 1472 1473 1474 1474 1475 1475 1475 1476 1476 1476 1476 1476 1476 1476 1475 1475 1475 1474 1473 1473 1472 1471 1469 1468 1466 1464 1461 1459 1457 1453 1450 1447 1444 1442
1459 1460 1461 1463 1465 1468 1470 1472 1473 1475 1475 1476 1476 1477 1477 1477 1477 1477 1477 1477 1477 1476 1476 1475 1475 1474 1474 1473 1472 1471 1470 1468 1466 1464 1462 1459 1457 1454 1452 1448 1445 1442 1438 1435
1462 1464 1466 1468 1470 1472 1473 1475 1476 1478 1478 1478 1478 1478 1478 1478 1478 1477 1477 1477 1476 1476 1475 1474 1474 1473 1472 1471 1469 1468 1467 1465 1463 1461 1458 1455 1453 1450 1446 1443 1439 1436 1432 1429
1468 1470 1471 1472 1475 1476 1477 1478 1479 1480 1480 1480 1479 1479 1478 1478 1478 1477 1477 1476 1475 1475 1474 1473 1472 1471 1469 1468 1467 1465 1463 1461 1459 1457 1454 1451 1448 1444 1441 1437 1433 1430 1426 1422
1473 1474 1476 1477 1479 1480 1481 1481 1482 1482 1481 1480 1479 1478 1478 1477 1477 1476 1476 1475 1473 1472 1472 1471 1469 1468 1467 1465 1464 1462 1459 1457 1455 1452 1449 1446 1442 1439 1435 1431 1427 1423 1420 1416
1478 1479 1480 1481 1482 1482 1482 1482 1482 1481 1481 1480 1478 1477 1477 1476 1475 1474 1473 1472 1471 1470 1469 1468 1466 1465 1463 1462 1460 1457 1455 1452 1450 1446 1443 1440 1437 1433 1429 1426 1422 1418 1413 1410
1481 1482 1483 1483 1483 1483 1483 1483 1482 1481 1480 1479 1477 1476 1475 1474 1473 1472 1470 1469 1468 1467 1465 1464 1463 1461 1459 1457 1455 1452 1450 1447 1444 1441 1437 1434 1431 1427 1423 1420 1416 1412 1408 1404
1484 1484 1485 1484 1484 1483 1483 1482 1481 1479 1478 1477 1475 1474 1473 1472 1470 1469 1468 1466 1465 1463 1462 1460 1458 1457 1455 1452 1450 1447 1444 1442 1438 1435 1432 1428 1425 1421 1418 1414 1410 1406 1402 1398
1485 1485 1484 1484 1483 1482 1481 1480 1479 1477 1476 1474 1473 1472 1470 1469 1467 1466 1464 1463 1461 1459 1457 1455 1454 1452 1450 1447 1444 1442 1439 1436 1433 1430 1426 1423 1419 1416 1412 1408 1404 1400 1396 1393
1485 1484 1483 1482 1481 1480 1479 1477 1476 1475 1473 1472 1470 1469 1467 1465 1463 1462 1460 1458 1456 1454 1452 1450 1448 1446 1444 1442 1439 1436 1433 1430 1427 1424 1420 1417 1414 1410 1406 1402 1399 1395 1391 1387
1484 1482 1481 1480 1479 1477 1476 1475 1473 1472 1470 1469 1467 1465 1463 1461 1459 1457 1455 1453 1451 1449 1447 1445 1443 1440 1438 1436 1433 1430 1427 1424 1421 1418 1414 1411 1408 1404 1401 1397 1393 1389 1386 1382
1482 1480 1479 1478 1477 1475 1474 1472 1470 1469 1467 1465 1463 1461 1459 1457 1455 1452 1450 1448 1446 1444 1441 1439 1437 1435 1433 1430 1427 1424 1421 1418 1415 1412 1409 1406 1402 1399 1395 1392 1388 1384 1381 1377
1480 1479 1477 1476 1474 1473 1471 1469 1467 1465 1463 1461 1458 1456 1454 1452 1450 1448 1445 1443 1441 1438 1436 1434 1431 1429 1427 1425 1422 1419 1416 1413 1410 1407 1404 1401 1397 1394 1390 1387 1383 1380 1376 1373